Time,TemperatureF,DewpointF,PressureIn,WindDirection,WindDirectionDegrees,WindSpeedMPH,WindSpeedGustMPH,Humidity,HourlyPrecipIn,Conditions,Clouds,dailyrainin,SoftwareType,DateUTC
2013-01-08 00:00:00,30.4,27.5,30.09,SSW,210,9.0,14.0,89,0.00,,,0.00,WeatherDisplay:10.37,2013-01-08 06:00:00,
2013-01-08 00:05:00,30.3,27.4,30.09,SW,214,8.9,11.5,89,0.00,,,0.00,WeatherDisplay:10.37,2013-01-08 06:05:00,
2013-01-08 00:10:00,30.3,27.2,30.09,SSW,212,9.1,11.5,88,0.00,,,0.00,WeatherDisplay:10.37,2013-01-08 06:10:00,
2013-01-08 00:15:00,30.3,27.2,30.09,SSW,210,9.4,11.5,88,0.00,,,0.00,WeatherDisplay:10.37,2013-01-08 06:15:00,
2013-01-08 00:20:00,30.4,27.3,30.09,SW,217,10.2,12.7,88,0.00,,,0.00,WeatherDisplay:10.37,2013-01-08 06:20:00,
2013-01-08 00:25:00,30.4,27.3,30.09,SSW,212,9.1,11.5,88,0.00,,,0.00,WeatherDisplay:10.37,2013-01-08 06:25:00,
2013-01-08 00:30:00,30.2,27.1,30.09,SSW,208,8.0,10.4,88,0.00,,,0.00,WeatherDisplay:10.37,2013-01-08 06:30:00,
2013-01-08 00:35:00,30.0,26.9,30.09,SW,224,8.3,11.5,88,0.00,,,0.00,WeatherDisplay:10.37,2013-01-08 06:35:00,
2013-01-08 00:40:00,30.0,27.2,30.09,SSW,208,10.1,12.0,89,0.00,,,0.00,WeatherDisplay:10.37,2013-01-08 06:40:00,
2013-01-08 00:45:00,29.9,27.1,30.09,SSW,210,9.4,11.5,89,0.00,,,0.00,WeatherDisplay:10.37,2013-01-08 06:45:00,
2013-01-08 00:50:00,29.9,27.1,30.09,SW,218,9.5,12.0,89,0.00,,,0.00,WeatherDisplay:10.37,2013-01-08 06:50:00,
2013-01-08 00:55:00,29.9,27.1,30.10,SSW,202,10.3,11.5,89,0.00,,,0.00,WeatherDisplay:10.37,2013-01-08 06:55:00,
2013-01-08 01:00:00,30.0,27.2,30.09,SSW,205,11.5,14.0,89,0.00,,,0.00,WeatherDisplay:10.37,2013-01-08 07:00:00,
2013-01-08 01:05:00,30.0,27.2,30.10,SSW,197,9.3,11.5,89,0.00,,,0.00,WeatherDisplay:10.37,2013-01-08 07:05:00,
2013-01-08 01:10:00,30.0,27.2,30.09,South,189,10.5,13.8,89,0.00,,,0.00,WeatherDisplay:10.37,2013-01-08 07:10:00,
2013-01-08 01:15:00,30.0,27.2,30.10,SSW,195,10.0,12.7,89,0.00,,,0.00,WeatherDisplay:10.37,2013-01-08 07:15:00,
2013-01-08 01:20:00,30.1,27.3,30.10,SSW,197,9.4,10.4,89,0.00,,,0.00,WeatherDisplay:10.37,2013-01-08 07:20:00,
2013-01-08 01:25:00,30.1,27.3,30.09,SW,226,10.8,14.0,89,0.00,,,0.00,WeatherDisplay:10.37,2013-01-08 07:25:00,
2013-01-08 01:30:00,30.2,27.3,30.10,SSW,194,9.8,12.7,89,0.00,,,0.00,WeatherDisplay:10.37,2013-01-08 07:30:00,
2013-01-08 01:36:00,30.3,27.4,30.10,SSW,210,9.8,12.7,89,0.00,,,0.00,WeatherDisplay:10.37,2013-01-08 07:36:00,
2013-01-08 01:41:00,30.4,27.5,30.09,SSW,200,11.1,12.0,89,0.00,,,0.00,WeatherDisplay:10.37,2013-01-08 07:41:00,
2013-01-08 01:46:00,30.5,27.6,30.09,SSW,194,12.5,12.7,89,0.00,,,0.00,WeatherDisplay:10.37,2013-01-08 07:46:00,
2013-01-08 01:51:00,30.7,27.6,30.09,SSW,212,11.9,13.8,88,0.00,,,0.00,WeatherDisplay:10.37,2013-01-08 07:51:00,
2013-01-08 01:56:00,30.7,27.6,30.09,SSW,208,11.6,12.7,88,0.00,,,0.00,WeatherDisplay:10.37,2013-01-08 07:56:00,
2013-01-08 02:01:00,30.8,27.4,30.09,SSW,205,11.2,11.5,87,0.00,,,0.00,WeatherDisplay:10.37,2013-01-08 08:01:00,
2013-01-08 02:06:00,30.9,27.5,30.10,SSW,211,11.6,13.8,87,0.00,,,0.00,WeatherDisplay:10.37,2013-01-08 08:06:00,
2013-01-08 02:11:00,30.9,27.5,30.09,SSW,211,9.9,11.5,87,0.00,,,0.00,WeatherDisplay:10.37,2013-01-08 08:11:00,
2013-01-08 02:16:00,30.8,27.4,30.09,SSW,208,10.6,11.5,87,0.00,,,0.00,WeatherDisplay:10.37,2013-01-08 08:16:00,
2013-01-08 02:21:00,30.8,27.4,30.10,SSW,197,9.1,12.7,87,0.00,,,0.00,WeatherDisplay:10.37,2013-01-08 08:21:00,
2013-01-08 02:26:00,30.8,27.4,30.10,SW,218,8.2,11.5,87,0.00,,,0.00,WeatherDisplay:10.37,2013-01-08 08:26:00,
2013-01-08 02:31:00,30.8,27.4,30.10,SW,215,8.9,11.5,87,0.00,,,0.00,WeatherDisplay:10.37,2013-01-08 08:31:00,
2013-01-08 02:36:00,30.8,27.4,30.10,SSW,212,9.8,11.5,87,0.00,,,0.00,WeatherDisplay:10.37,2013-01-08 08:36:00,
2013-01-08 02:41:00,30.9,27.5,30.10,SSW,212,7.7,11.5,87,0.00,,,0.00,WeatherDisplay:10.37,2013-01-08 08:41:00,
2013-01-08 02:46:00,30.9,27.5,30.10,SSW,212,7.7,10.4,87,0.00,,,0.00,WeatherDisplay:10.37,2013-01-08 08:46:00,
2013-01-08 02:51:00,31.0,27.3,30.10,SSW,200,7.2,10.4,86,0.00,,,0.00,WeatherDisplay:10.37,2013-01-08 08:51:00,
2013-01-08 02:56:00,31.1,27.4,30.10,SW,235,5.5,9.2,86,0.00,,,0.00,WeatherDisplay:10.37,2013-01-08 08:56:00,
2013-01-08 03:01:00,31.1,27.4,30.10,SW,215,6.9,8.1,86,0.00,,,0.00,WeatherDisplay:10.37,2013-01-08 09:01:00,
2013-01-08 03:06:00,31.1,27.4,30.10,SW,214,5.8,6.9,86,0.00,,,0.00,WeatherDisplay:10.37,2013-01-08 09:06:00,
2013-01-08 03:11:00,31.1,27.4,30.10,SW,228,3.9,5.8,86,0.00,,,0.00,WeatherDisplay:10.37,2013-01-08 09:11:00,
2013-01-08 03:16:00,31.0,27.3,30.10,WSW,240,1.8,3.5,86,0.00,,,0.00,WeatherDisplay:10.37,2013-01-08 09:16:00,
2013-01-08 03:21:00,30.9,27.2,30.10,WSW,246,0.7,3.5,86,0.00,,,0.00,WeatherDisplay:10.37,2013-01-08 09:21:00,
2013-01-08 03:26:00,30.8,27.1,30.10,WSW,256,0.5,1.1,86,0.00,,,0.00,WeatherDisplay:10.37,2013-01-08 09:26:00,
2013-01-08 03:31:00,30.6,26.9,30.10,WSW,245,0.1,1.1,86,0.00,,,0.00,WeatherDisplay:10.37,2013-01-08 09:31:00,
2013-01-08 03:36:00,30.4,26.7,30.10,WSW,239,2.1,2.3,86,0.00,,,0.00,WeatherDisplay:10.37,2013-01-08 09:36:00,
2013-01-08 03:41:00,30.1,26.4,30.10,SW,221,1.6,2.3,86,0.00,,,0.00,WeatherDisplay:10.37,2013-01-08 09:41:00,
2013-01-08 03:46:00,29.8,26.1,30.10,SW,221,2.1,3.5,86,0.00,,,0.00,WeatherDisplay:10.37,2013-01-08 09:46:00,
2013-01-08 03:51:00,29.6,25.9,30.10,SW,220,1.5,3.0,86,0.00,,,0.00,WeatherDisplay:10.37,2013-01-08 09:51:00,
2013-01-08 03:56:00,29.4,25.7,30.10,South,184,1.2,2.0,86,0.00,,,0.00,WeatherDisplay:10.37,2013-01-08 09:56:00,
2013-01-08 04:01:00,29.0,25.3,30.09,South,184,0.3,2.3,86,0.00,,,0.00,WeatherDisplay:10.37,2013-01-08 10:01:00,
2013-01-08 04:06:00,28.7,25.3,30.09,South,184,0.8,2.3,87,0.00,,,0.00,WeatherDisplay:10.37,2013-01-08 10:06:00,
2013-01-08 04:12:00,28.4,25.0,30.10,South,184,1.2,2.0,87,0.00,,,0.00,WeatherDisplay:10.37,2013-01-08 10:12:00,
2013-01-08 04:17:00,28.2,25.1,30.10,South,184,1.4,2.3,88,0.00,,,0.00,WeatherDisplay:10.37,2013-01-08 10:17:00,
2013-01-08 04:22:00,28.1,25.0,30.10,SSW,194,0.0,1.1,88,0.00,,,0.00,WeatherDisplay:10.37,2013-01-08 10:22:00,
2013-01-08 04:27:00,28.0,24.9,30.09,South,184,0.0,0.0,88,0.00,,,0.00,WeatherDisplay:10.37,2013-01-08 10:27:00,
2013-01-08 04:32:00,28.0,24.9,30.09,South,184,1.2,2.3,88,0.00,,,0.00,WeatherDisplay:10.37,2013-01-08 10:32:00,
2013-01-08 04:37:00,27.7,24.6,30.09,South,184,2.7,3.5,88,0.00,,,0.00,WeatherDisplay:10.37,2013-01-08 10:37:00,
2013-01-08 04:42:00,27.6,24.8,30.09,South,184,4.3,4.6,89,0.00,,,0.00,WeatherDisplay:10.37,2013-01-08 10:42:00,
2013-01-08 04:47:00,27.6,24.8,30.09,South,183,6.4,6.9,89,0.00,,,0.00,WeatherDisplay:10.37,2013-01-08 10:47:00,
2013-01-08 04:52:00,27.7,24.9,30.09,South,188,7.8,9.2,89,0.00,,,0.00,WeatherDisplay:10.37,2013-01-08 10:52:00,
2013-01-08 04:57:00,27.8,25.0,30.09,South,180,8.4,11.5,89,0.00,,,0.00,WeatherDisplay:10.37,2013-01-08 10:57:00,
2013-01-08 05:02:00,28.0,25.2,30.09,SSW,197,8.7,10.4,89,0.00,,,0.00,WeatherDisplay:10.37,2013-01-08 11:02:00,
2013-01-08 05:07:00,28.1,25.3,30.09,SSW,201,7.8,11.5,89,0.00,,,0.00,WeatherDisplay:10.37,2013-01-08 11:07:00,
2013-01-08 05:12:00,28.1,25.0,30.09,SSW,201,6.6,10.4,88,0.00,,,0.00,WeatherDisplay:10.37,2013-01-08 11:12:00,
2013-01-08 05:17:00,28.1,25.0,30.09,SSW,195,5.2,6.9,88,0.00,,,0.00,WeatherDisplay:10.37,2013-01-08 11:17:00,
2013-01-08 05:22:00,28.1,25.3,30.09,SSW,210,7.2,9.2,89,0.00,,,0.00,WeatherDisplay:10.37,2013-01-08 11:22:00,
2013-01-08 05:27:00,28.2,25.1,30.09,SSW,208,7.2,9.2,88,0.00,,,0.00,WeatherDisplay:10.37,2013-01-08 11:27:00,
2013-01-08 05:32:00,28.3,25.2,30.08,South,187,7.7,10.4,88,0.00,,,0.00,WeatherDisplay:10.37,2013-01-08 11:32:00,
2013-01-08 05:37:00,28.2,25.1,30.08,SSW,195,8.7,11.5,88,0.00,,,0.00,WeatherDisplay:10.37,2013-01-08 11:37:00,
2013-01-08 05:42:00,28.3,25.2,30.08,SSW,197,9.6,11.5,88,0.00,,,0.00,WeatherDisplay:10.37,2013-01-08 11:42:00,
2013-01-08 05:47:00,28.4,25.3,30.08,South,186,10.3,11.5,88,0.00,,,0.00,WeatherDisplay:10.37,2013-01-08 11:47:00,
2013-01-08 05:52:00,28.5,25.4,30.08,SSW,204,10.9,12.7,88,0.00,,,0.00,WeatherDisplay:10.37,2013-01-08 11:52:00,
2013-01-08 05:57:00,28.5,25.4,30.08,South,184,9.4,11.5,88,0.00,,,0.00,WeatherDisplay:10.37,2013-01-08 11:57:00,
2013-01-08 06:02:00,28.4,25.3,30.08,South,189,10.1,11.5,88,0.00,,,0.00,WeatherDisplay:10.37,2013-01-08 12:02:00,
2013-01-08 06:07:00,28.4,25.3,30.08,SSW,197,10.5,12.7,88,0.00,,,0.00,WeatherDisplay:10.37,2013-01-08 12:07:00,
2013-01-08 06:12:00,28.3,25.2,30.08,SSW,203,10.2,12.0,88,0.00,,,0.00,WeatherDisplay:10.37,2013-01-08 12:12:00,
2013-01-08 06:17:00,28.4,25.3,30.08,South,183,9.5,11.5,88,0.00,,,0.00,WeatherDisplay:10.37,2013-01-08 12:17:00,
2013-01-08 06:22:00,28.4,25.3,30.09,South,181,8.5,10.4,88,0.00,,,0.00,WeatherDisplay:10.37,2013-01-08 12:22:00,
2013-01-08 06:27:00,28.3,25.2,30.09,SW,231,6.4,10.0,88,0.00,,,0.00,WeatherDisplay:10.37,2013-01-08 12:27:00,
2013-01-08 06:32:00,28.4,25.3,30.09,SSW,201,6.7,9.2,88,0.00,,,0.00,WeatherDisplay:10.37,2013-01-08 12:32:00,
2013-01-08 06:37:00,28.5,25.1,30.10,SW,224,3.8,5.8,87,0.00,,,0.00,WeatherDisplay:10.37,2013-01-08 12:37:00,
2013-01-08 06:42:00,28.4,25.0,30.10,SSW,212,3.1,4.6,87,0.00,,,0.00,WeatherDisplay:10.37,2013-01-08 12:42:00,
2013-01-08 06:47:00,28.2,24.8,30.10,SSW,200,5.9,6.9,87,0.00,,,0.00,WeatherDisplay:10.37,2013-01-08 12:47:00,
2013-01-08 06:53:00,27.9,24.8,30.10,SW,215,5.4,6.9,88,0.00,,,0.00,WeatherDisplay:10.37,2013-01-08 12:53:00,
2013-01-08 06:58:00,27.7,24.6,30.10,SSW,200,3.1,3.5,88,0.00,,,0.00,WeatherDisplay:10.37,2013-01-08 12:58:00,
2013-01-08 07:03:00,27.6,24.5,30.10,South,184,5.3,7.0,88,0.00,CLR,,0.00,WeatherDisplay:10.37,2013-01-08 13:03:00,
2013-01-08 07:08:00,27.6,24.5,30.10,SW,219,6.5,8.0,88,0.00,CLR,,0.00,WeatherDisplay:10.37,2013-01-08 13:08:00,
2013-01-08 07:13:00,27.8,24.7,30.10,SSW,197,6.4,10.4,88,0.00,CLR,,0.00,WeatherDisplay:10.37,2013-01-08 13:13:00,
2013-01-08 07:18:00,27.8,24.7,30.10,SSW,201,7.7,9.2,88,0.00,CLR,,0.00,WeatherDisplay:10.37,2013-01-08 13:18:00,
2013-01-08 07:23:00,27.9,24.8,30.10,SSW,200,8.0,11.0,88,0.00,CLR,,0.00,WeatherDisplay:10.37,2013-01-08 13:23:00,
2013-01-08 07:28:00,28.0,24.9,30.10,SSW,205,7.2,10.4,88,0.00,CLR,,0.00,WeatherDisplay:10.37,2013-01-08 13:28:00,
2013-01-08 07:33:00,28.1,25.0,30.10,SSW,200,9.0,11.5,88,0.00,CLR,,0.00,WeatherDisplay:10.37,2013-01-08 13:33:00,
2013-01-08 07:38:00,28.2,25.1,30.10,SSW,198,7.8,11.5,88,0.00,CLR,,0.00,WeatherDisplay:10.37,2013-01-08 13:38:00,
2013-01-08 07:43:00,28.3,25.2,30.10,SSW,212,8.4,10.0,88,0.00,CLR,,0.00,WeatherDisplay:10.37,2013-01-08 13:43:00,
2013-01-08 07:48:00,28.4,25.3,30.10,SSW,199,7.5,11.5,88,0.00,CLR,,0.00,WeatherDisplay:10.37,2013-01-08 13:48:00,
2013-01-08 07:53:00,28.4,25.3,30.11,South,190,7.5,9.2,88,0.00,CLR,,0.00,WeatherDisplay:10.37,2013-01-08 13:53:00,
2013-01-08 07:58:00,28.6,25.5,30.11,SSW,200,7.4,9.2,88,0.00,CLR,,0.00,WeatherDisplay:10.37,2013-01-08 13:58:00,
2013-01-08 08:03:00,28.7,25.6,30.11,SSW,195,6.9,9.2,88,0.00,CLR,,0.00,WeatherDisplay:10.37,2013-01-08 14:03:00,
2013-01-08 08:08:00,28.8,25.7,30.11,South,191,8.0,10.4,88,0.00,CLR,,0.00,WeatherDisplay:10.37,2013-01-08 14:08:00,
2013-01-08 08:13:00,28.9,25.8,30.11,SSW,200,9.1,10.4,88,0.00,CLR,,0.00,WeatherDisplay:10.37,2013-01-08 14:13:00,
2013-01-08 08:18:00,29.0,25.9,30.11,South,184,9.2,11.5,88,0.00,CLR,,0.00,WeatherDisplay:10.37,2013-01-08 14:18:00,
2013-01-08 08:23:00,29.2,25.8,30.11,SSW,210,8.8,11.5,87,0.00,CLR,,0.00,WeatherDisplay:10.37,2013-01-08 14:23:00,
2013-01-08 08:28:00,29.4,26.0,30.11,SSW,200,8.8,11.5,87,0.00,CLR,,0.00,WeatherDisplay:10.37,2013-01-08 14:28:00,
2013-01-08 08:33:00,29.6,26.2,30.11,SSW,195,8.4,10.4,87,0.00,CLR,,0.00,WeatherDisplay:10.37,2013-01-08 14:33:00,
2013-01-08 08:38:00,29.9,26.8,30.11,South,176,8.1,11.5,88,0.00,CLR,,0.00,WeatherDisplay:10.37,2013-01-08 14:38:00,
2013-01-08 08:43:00,30.2,26.8,30.11,South,173,9.9,11.5,87,0.00,CLR,,0.00,WeatherDisplay:10.37,2013-01-08 14:43:00,
2013-01-08 08:48:00,30.6,27.2,30.11,South,176,9.8,12.7,87,0.00,CLR,,0.00,WeatherDisplay:10.37,2013-01-08 14:48:00,
2013-01-08 08:53:00,31.1,27.4,30.11,SSE,165,11.1,12.7,86,0.00,CLR,,0.00,WeatherDisplay:10.37,2013-01-08 14:53:00,
2013-01-08 08:58:00,31.5,27.8,30.11,South,190,10.2,11.5,86,0.00,CLR,,0.00,WeatherDisplay:10.37,2013-01-08 14:58:00,
2013-01-08 09:03:00,31.8,28.1,30.11,SSW,205,11.8,13.8,86,0.00,CLR,,0.00,WeatherDisplay:10.37,2013-01-08 15:03:00,
2013-01-08 09:08:00,32.1,28.1,30.11,South,173,11.9,16.1,85,0.00,CLR,,0.00,WeatherDisplay:10.37,2013-01-08 15:08:00,
2013-01-08 09:13:00,32.5,28.5,30.11,SSW,193,11.3,13.8,85,0.00,CLR,,0.00,WeatherDisplay:10.37,2013-01-08 15:13:00,
2013-01-08 09:19:00,32.7,28.7,30.11,SSW,194,9.8,12.7,85,0.00,CLR,,0.00,WeatherDisplay:10.37,2013-01-08 15:19:00,
2013-01-08 09:24:00,32.9,28.9,30.12,SSW,205,11.5,13.8,85,0.00,CLR,,0.00,WeatherDisplay:10.37,2013-01-08 15:24:00,
2013-01-08 09:29:00,33.1,28.8,30.11,South,184,12.7,14.0,84,0.00,CLR,,0.00,WeatherDisplay:10.37,2013-01-08 15:29:00,
2013-01-08 09:34:00,33.3,29.0,30.11,SSW,205,10.9,13.8,84,0.00,CLR,,0.00,WeatherDisplay:10.37,2013-01-08 15:34:00,
2013-01-08 09:39:00,33.5,29.2,30.11,SSW,193,11.1,14.0,84,0.00,CLR,,0.00,WeatherDisplay:10.37,2013-01-08 15:39:00,
2013-01-08 09:44:00,33.6,29.3,30.11,South,183,11.8,12.7,84,0.00,CLR,,0.00,WeatherDisplay:10.37,2013-01-08 15:44:00,
2013-01-08 09:49:00,33.7,29.4,30.11,SSW,195,11.0,12.7,84,0.00,CLR,,0.00,WeatherDisplay:10.37,2013-01-08 15:49:00,
2013-01-08 09:54:00,33.9,29.6,30.12,South,188,11.1,13.8,84,0.00,CLR,,0.00,WeatherDisplay:10.37,2013-01-08 15:54:00,
2013-01-08 09:59:00,34.0,29.7,30.11,SW,216,9.4,12.7,84,0.00,CLR,,0.00,WeatherDisplay:10.37,2013-01-08 15:59:00,
2013-01-08 10:04:00,34.1,29.8,30.11,SSW,203,12.1,14.0,84,0.00,CLR,,0.00,WeatherDisplay:10.37,2013-01-08 16:04:00,
2013-01-08 10:09:00,34.2,29.9,30.11,SSW,207,11.0,12.7,84,0.00,CLR,,0.00,WeatherDisplay:10.37,2013-01-08 16:09:00,
2013-01-08 10:14:00,34.3,30.0,30.11,South,174,10.0,11.5,84,0.00,CLR,,0.00,WeatherDisplay:10.37,2013-01-08 16:14:00,
2013-01-08 10:19:00,34.5,30.2,30.11,SSW,207,9.8,12.7,84,0.00,CLR,,0.00,WeatherDisplay:10.37,2013-01-08 16:19:00,
2013-01-08 10:24:00,34.7,30.4,30.11,SSE,162,10.7,13.8,84,0.00,CLR,,0.00,WeatherDisplay:10.37,2013-01-08 16:24:00,
2013-01-08 10:29:00,34.9,30.6,30.11,SSW,203,10.0,12.7,84,0.00,CLR,,0.00,WeatherDisplay:10.37,2013-01-08 16:29:00,
2013-01-08 10:34:00,34.9,30.3,30.11,SSW,197,11.2,13.8,83,0.00,CLR,,0.00,WeatherDisplay:10.37,2013-01-08 16:34:00,
2013-01-08 10:39:00,35.1,30.5,30.11,SSW,207,10.0,14.0,83,0.00,CLR,,0.00,WeatherDisplay:10.37,2013-01-08 16:39:00,
2013-01-08 10:44:00,35.3,30.7,30.11,South,190,9.6,13.8,83,0.00,CLR,,0.00,WeatherDisplay:10.37,2013-01-08 16:44:00,
2013-01-08 10:49:00,35.5,30.8,30.10,South,189,10.1,12.7,83,0.00,CLR,,0.00,WeatherDisplay:10.37,2013-01-08 16:49:00,
2013-01-08 10:54:00,35.7,31.0,30.10,South,191,11.4,13.8,83,0.00,CLR,,0.00,WeatherDisplay:10.37,2013-01-08 16:54:00,
2013-01-08 10:59:00,36.1,31.4,30.10,South,177,9.5,11.5,83,0.00,CLR,,0.00,WeatherDisplay:10.37,2013-01-08 16:59:00,
2013-01-08 11:04:00,36.5,31.5,30.10,SSW,203,9.5,11.5,82,0.00,CLR,,0.00,WeatherDisplay:10.37,2013-01-08 17:04:00,
2013-01-08 11:09:00,36.9,31.9,30.10,SSW,205,12.6,12.7,82,0.00,CLR,,0.00,WeatherDisplay:10.37,2013-01-08 17:09:00,
2013-01-08 11:14:00,37.2,31.9,30.09,SSW,200,11.6,13.8,81,0.00,CLR,,0.00,WeatherDisplay:10.37,2013-01-08 17:14:00,
2013-01-08 11:19:00,37.4,32.1,30.09,SSW,198,11.1,12.7,81,0.00,CLR,,0.00,WeatherDisplay:10.37,2013-01-08 17:19:00,
2013-01-08 11:24:00,37.6,32.0,30.09,South,176,11.1,12.7,80,0.00,CLR,,0.00,WeatherDisplay:10.37,2013-01-08 17:24:00,
2013-01-08 11:29:00,37.9,32.6,30.09,SSW,198,7.8,12.7,81,0.00,CLR,,0.00,WeatherDisplay:10.37,2013-01-08 17:29:00,
2013-01-08 11:34:00,38.1,32.8,30.08,SSW,195,11.2,11.5,81,0.00,CLR,,0.00,WeatherDisplay:10.37,2013-01-08 17:34:00,
2013-01-08 11:39:00,38.2,32.6,30.08,SSE,166,10.2,13.8,80,0.00,CLR,,0.00,WeatherDisplay:10.37,2013-01-08 17:39:00,
2013-01-08 11:45:00,38.3,32.7,30.08,SSW,196,10.5,11.5,80,0.00,CLR,,0.00,WeatherDisplay:10.37,2013-01-08 17:45:00,
2013-01-08 11:50:00,38.4,32.8,30.08,SSW,193,9.9,13.8,80,0.00,CLR,,0.00,WeatherDisplay:10.37,2013-01-08 17:50:00,
2013-01-08 11:55:00,38.5,32.6,30.08,SSW,195,12.9,15.0,79,0.00,CLR,,0.00,WeatherDisplay:10.37,2013-01-08 17:55:00,
2013-01-08 12:00:00,38.7,32.7,30.08,SSE,163,11.7,12.7,79,0.00,CLR,,0.00,WeatherDisplay:10.37,2013-01-08 18:00:00,
2013-01-08 12:05:00,38.9,32.9,30.07,SSW,195,11.6,12.7,79,0.00,CLR,,0.00,WeatherDisplay:10.37,2013-01-08 18:05:00,
2013-01-08 12:10:00,39.3,33.3,30.07,SSW,198,10.7,13.0,79,0.00,CLR,,0.00,WeatherDisplay:10.37,2013-01-08 18:10:00,
2013-01-08 12:15:00,39.5,33.5,30.07,SSE,167,11.1,13.0,79,0.00,CLR,,0.00,WeatherDisplay:10.37,2013-01-08 18:15:00,
2013-01-08 12:20:00,39.7,33.4,30.07,SSE,160,12.3,14.0,78,0.00,CLR,,0.00,WeatherDisplay:10.37,2013-01-08 18:20:00,
2013-01-08 12:25:00,39.9,33.6,30.07,SW,224,11.1,13.0,78,0.00,CLR,,0.00,WeatherDisplay:10.37,2013-01-08 18:25:00,
2013-01-08 12:30:00,40.3,34.0,30.07,SSW,195,11.1,15.0,78,0.00,CLR,,0.00,WeatherDisplay:10.37,2013-01-08 18:30:00,
2013-01-08 12:35:00,40.5,33.9,30.07,South,172,12.0,13.8,77,0.00,CLR,,0.00,WeatherDisplay:10.37,2013-01-08 18:35:00,
2013-01-08 12:40:00,40.7,33.7,30.06,South,190,14.1,16.1,76,0.00,CLR,,0.00,WeatherDisplay:10.37,2013-01-08 18:40:00,
2013-01-08 12:45:00,40.7,34.0,30.06,South,169,11.0,19.6,77,0.00,CLR,,0.00,WeatherDisplay:10.37,2013-01-08 18:45:00,
2013-01-08 12:50:00,40.7,33.7,30.06,South,181,13.0,16.1,76,0.00,CLR,,0.00,WeatherDisplay:10.37,2013-01-08 18:50:00,
2013-01-08 12:55:00,40.8,33.5,30.06,South,185,13.3,17.3,75,0.00,CLR,,0.00,WeatherDisplay:10.37,2013-01-08 18:55:00,
2013-01-08 13:00:00,41.0,34.0,30.05,South,172,13.3,15.0,76,0.00,CLR,,0.00,WeatherDisplay:10.37,2013-01-08 19:00:00,
2013-01-08 13:05:00,41.0,33.7,30.05,SSW,198,13.5,17.3,75,0.00,CLR,,0.00,WeatherDisplay:10.37,2013-01-08 19:05:00,
2013-01-08 13:10:00,41.4,34.4,30.05,South,170,10.2,11.5,76,0.00,CLR,,0.00,WeatherDisplay:10.37,2013-01-08 19:10:00,
2013-01-08 13:15:00,41.6,34.6,30.05,South,172,11.6,13.8,76,0.00,CLR,,0.00,WeatherDisplay:10.37,2013-01-08 19:15:00,
2013-01-08 13:20:00,41.9,34.6,30.05,SSE,149,10.9,12.7,75,0.00,CLR,,0.00,WeatherDisplay:10.37,2013-01-08 19:20:00,
2013-01-08 13:25:00,42.0,34.3,30.06,South,181,11.6,14.0,74,0.00,CLR,,0.00,WeatherDisplay:10.37,2013-01-08 19:25:00,
2013-01-08 13:30:00,42.2,34.5,30.05,SSE,167,12.8,16.0,74,0.00,CLR,,0.00,WeatherDisplay:10.37,2013-01-08 19:30:00,
2013-01-08 13:35:00,42.4,34.7,30.05,SSW,194,12.8,17.3,74,0.00,CLR,,0.00,WeatherDisplay:10.37,2013-01-08 19:35:00,
2013-01-08 13:40:00,42.5,34.8,30.05,SSE,166,10.1,11.5,74,0.00,CLR,,0.00,WeatherDisplay:10.37,2013-01-08 19:40:00,
2013-01-08 13:45:00,42.6,34.9,30.05,SSW,194,11.7,15.0,74,0.00,CLR,,0.00,WeatherDisplay:10.37,2013-01-08 19:45:00,
2013-01-08 13:50:00,42.4,34.7,30.05,South,186,10.7,15.0,74,0.00,CLR,,0.00,WeatherDisplay:10.37,2013-01-08 19:50:00,
2013-01-08 13:55:00,42.1,34.7,30.05,South,179,10.9,15.0,75,0.00,CLR,,0.00,WeatherDisplay:10.37,2013-01-08 19:55:00,
2013-01-08 14:00:00,42.0,34.3,30.05,South,187,12.7,15.0,74,0.00,,,0.00,WeatherDisplay:10.37,2013-01-08 20:00:00,
2013-01-08 14:05:00,41.8,34.8,30.05,SSW,200,11.7,11.7,76,0.00,,,0.00,WeatherDisplay:10.37,2013-01-08 20:05:00,
2013-01-08 14:10:00,41.9,34.9,30.05,South,173,10.9,13.8,76,0.00,,,0.00,WeatherDisplay:10.37,2013-01-08 20:10:00,
2013-01-08 14:15:00,42.3,34.9,30.05,SSE,167,10.7,15.0,75,0.00,,,0.00,WeatherDisplay:10.37,2013-01-08 20:15:00,
2013-01-08 14:20:00,42.7,35.0,30.04,South,173,12.0,13.8,74,0.00,,,0.00,WeatherDisplay:10.37,2013-01-08 20:20:00,
2013-01-08 14:25:00,42.9,35.5,30.05,South,179,9.7,13.0,75,0.00,,,0.00,WeatherDisplay:10.37,2013-01-08 20:25:00,
2013-01-08 14:31:00,43.2,35.5,30.04,South,174,9.5,11.5,74,0.00,,,0.00,WeatherDisplay:10.37,2013-01-08 20:31:00,
2013-01-08 14:36:00,43.2,35.1,30.04,SSE,162,10.9,12.7,73,0.00,,,0.00,WeatherDisplay:10.37,2013-01-08 20:36:00,
2013-01-08 14:41:00,43.2,35.1,30.04,SSE,162,12.0,13.8,73,0.00,,,0.00,WeatherDisplay:10.37,2013-01-08 20:41:00,
2013-01-08 14:46:00,43.1,35.0,30.04,SSE,163,11.2,15.0,73,0.00,,,0.00,WeatherDisplay:10.37,2013-01-08 20:46:00,
2013-01-08 14:51:00,43.1,35.4,30.04,South,181,7.8,10.4,74,0.00,,,0.00,WeatherDisplay:10.37,2013-01-08 20:51:00,
2013-01-08 14:55:00,34.8,31.6,30.15,West,272,7.0,9.0,88,0.00,CLR,,0.00,WeatherDisplay:10.37,2013-01-08 20:55:00,
2013-01-08 14:56:00,43.1,35.4,30.04,South,181,8.0,10.0,74,0.00,,,0.00,WeatherDisplay:10.37,2013-01-08 20:56:00,
2013-01-08 15:00:00,34.7,31.5,30.15,West,270,6.0,9.0,88,0.00,CLR,,0.00,WeatherDisplay:10.37,2013-01-08 21:00:00,
2013-01-08 15:01:00,43.2,35.5,30.04,SSE,159,8.6,11.5,74,0.00,,,0.00,WeatherDisplay:10.37,2013-01-08 21:01:00,
2013-01-08 15:05:00,34.5,31.3,30.15,West,270,7.0,10.0,88,0.00,CLR,,0.00,WeatherDisplay:10.37,2013-01-08 21:05:00,
2013-01-08 15:06:00,43.2,35.5,30.04,SSE,165,7.7,10.4,74,0.00,,,0.00,WeatherDisplay:10.37,2013-01-08 21:06:00,
2013-01-08 15:11:00,43.1,35.4,30.03,South,186,9.4,11.5,74,0.00,,,0.00,WeatherDisplay:10.37,2013-01-08 21:11:00,
2013-01-08 15:16:00,42.9,35.2,30.04,South,172,12.0,13.8,74,0.00,,,0.00,WeatherDisplay:10.37,2013-01-08 21:16:00,
2013-01-08 15:21:00,42.9,35.2,30.03,SE,131,7.5,10.4,74,0.00,,,0.00,WeatherDisplay:10.37,2013-01-08 21:21:00,
2013-01-08 15:26:00,42.7,35.3,30.03,SSE,166,8.6,11.5,75,0.00,,,0.00,WeatherDisplay:10.37,2013-01-08 21:26:00,
2013-01-08 15:31:00,42.5,35.1,30.03,SSE,159,8.7,11.5,75,0.00,,,0.00,WeatherDisplay:10.37,2013-01-08 21:31:00,
2013-01-08 15:36:00,42.4,35.0,30.03,SE,145,9.7,11.5,75,0.00,,,0.00,WeatherDisplay:10.37,2013-01-08 21:36:00,
2013-01-08 15:41:00,42.3,34.9,30.03,SSE,160,10.3,12.7,75,0.00,,,0.00,WeatherDisplay:10.37,2013-01-08 21:41:00,
2013-01-08 15:46:00,42.0,34.6,30.03,SSE,162,9.9,12.7,75,0.00,,,0.00,WeatherDisplay:10.37,2013-01-08 21:46:00,
2013-01-08 15:51:00,41.7,34.7,30.02,SSE,162,11.1,12.7,76,0.00,,,0.00,WeatherDisplay:10.37,2013-01-08 21:51:00,
2013-01-08 15:56:00,41.3,34.6,30.01,SSE,158,9.0,12.0,77,0.00,,,0.00,WeatherDisplay:10.37,2013-01-08 21:56:00,
2013-01-08 16:01:00,40.9,34.6,30.01,SSE,156,10.4,12.7,78,0.00,,,0.00,WeatherDisplay:10.37,2013-01-08 22:01:00,
2013-01-08 16:06:00,40.8,34.5,30.01,SSE,155,8.6,10.4,78,0.00,,,0.00,WeatherDisplay:10.37,2013-01-08 22:06:00,
2013-01-08 16:11:00,40.5,34.2,30.01,SSE,162,8.6,11.5,78,0.00,,,0.00,WeatherDisplay:10.37,2013-01-08 22:11:00,
2013-01-08 16:16:00,40.1,34.1,30.01,SSE,158,8.1,11.5,79,0.00,,,0.00,WeatherDisplay:10.37,2013-01-08 22:16:00,
2013-01-08 16:21:00,40.1,34.1,30.02,SSE,167,5.9,7.0,79,0.00,,,0.00,WeatherDisplay:10.37,2013-01-08 22:21:00,
2013-01-08 16:26:00,40.0,33.7,30.02,South,174,7.8,11.5,78,0.00,,,0.00,WeatherDisplay:10.37,2013-01-08 22:26:00,
2013-01-08 16:31:00,39.5,33.2,30.02,SSE,160,7.6,10.4,78,0.00,,,0.00,WeatherDisplay:10.37,2013-01-08 22:31:00,
2013-01-08 16:36:00,38.9,32.9,30.02,SSE,162,6.8,8.1,79,0.00,,,0.00,WeatherDisplay:10.37,2013-01-08 22:36:00,
2013-01-08 16:41:00,37.9,32.3,30.02,SSE,150,5.9,6.9,80,0.00,,,0.00,WeatherDisplay:10.37,2013-01-08 22:41:00,
2013-01-08 16:46:00,37.3,32.3,30.02,SE,131,7.5,9.2,82,0.00,,,0.00,WeatherDisplay:10.37,2013-01-08 22:46:00,
2013-01-08 16:51:00,37.4,32.7,30.01,SE,132,10.1,11.5,83,0.00,,,0.00,WeatherDisplay:10.37,2013-01-08 22:51:00,
2013-01-08 16:56:00,37.8,32.8,30.01,SSE,155,9.5,12.7,82,0.00,,,0.00,WeatherDisplay:10.37,2013-01-08 22:56:00,
2013-01-08 17:01:00,37.7,32.7,30.00,SSE,148,9.2,12.0,82,0.00,,,0.00,WeatherDisplay:10.37,2013-01-08 23:01:00,
2013-01-08 17:06:00,37.5,32.5,30.00,SE,142,10.6,13.8,82,0.00,,,0.00,WeatherDisplay:10.37,2013-01-08 23:06:00,
2013-01-08 17:11:00,37.4,32.4,30.00,SE,136,12.2,12.2,82,0.00,,,0.00,WeatherDisplay:10.37,2013-01-08 23:11:00,
2013-01-08 17:16:00,37.2,32.2,30.01,SSE,148,9.9,12.7,82,0.00,,,0.00,WeatherDisplay:10.37,2013-01-08 23:16:00,
2013-01-08 17:22:00,36.8,32.1,30.00,SSE,158,7.8,10.4,83,0.00,,,0.00,WeatherDisplay:10.37,2013-01-08 23:22:00,
2013-01-08 17:27:00,36.7,32.3,30.00,SSE,159,8.2,10.4,84,0.00,,,0.00,WeatherDisplay:10.37,2013-01-08 23:27:00,
2013-01-08 17:32:00,36.8,32.4,30.00,SSE,160,10.7,11.5,84,0.00,,,0.00,WeatherDisplay:10.37,2013-01-08 23:32:00,
2013-01-08 17:37:00,36.8,32.7,30.00,SSE,153,9.9,11.5,85,0.00,,,0.00,WeatherDisplay:10.37,2013-01-08 23:37:00,
2013-01-08 17:42:00,36.7,32.6,30.00,SSE,162,7.8,10.4,85,0.00,,,0.00,WeatherDisplay:10.37,2013-01-08 23:42:00,
2013-01-08 17:47:00,36.7,32.6,30.00,SSE,151,8.8,11.5,85,0.00,,,0.00,WeatherDisplay:10.37,2013-01-08 23:47:00,
2013-01-08 17:52:00,36.6,32.8,30.00,SSE,152,9.3,11.5,86,0.00,,,0.00,WeatherDisplay:10.37,2013-01-08 23:52:00,
2013-01-08 17:57:00,36.7,32.9,30.00,SSE,155,10.2,12.7,86,0.00,,,0.00,WeatherDisplay:10.37,2013-01-08 23:57:00,
2013-01-08 18:02:00,36.8,33.0,30.00,SSE,155,12.3,16.1,86,0.00,,,0.00,WeatherDisplay:10.37,2013-01-09 00:02:00,
2013-01-08 18:07:00,37.3,33.2,30.00,SSE,162,11.7,15.0,85,0.00,,,0.00,WeatherDisplay:10.37,2013-01-09 00:07:00,
2013-01-08 18:12:00,37.6,33.2,30.00,SSE,165,13.0,17.3,84,0.00,,,0.00,WeatherDisplay:10.37,2013-01-09 00:12:00,
2013-01-08 18:17:00,37.7,33.3,30.00,SSE,158,12.7,13.8,84,0.00,,,0.00,WeatherDisplay:10.37,2013-01-09 00:17:00,
2013-01-08 18:22:00,37.6,33.2,30.00,SSE,159,11.9,13.8,84,0.00,,,0.00,WeatherDisplay:10.37,2013-01-09 00:22:00,
2013-01-08 18:27:00,37.7,33.3,30.00,SSE,162,10.9,13.8,84,0.00,,,0.00,WeatherDisplay:10.37,2013-01-09 00:27:00,
2013-01-08 18:32:00,37.6,33.2,30.00,SSE,148,11.8,16.0,84,0.00,,,0.00,WeatherDisplay:10.37,2013-01-09 00:32:00,
2013-01-08 18:37:00,37.5,33.1,30.00,SSE,158,12.9,15.0,84,0.00,,,0.00,WeatherDisplay:10.37,2013-01-09 00:37:00,
2013-01-08 18:42:00,37.3,32.9,30.00,SSE,158,12.3,13.8,84,0.00,,,0.00,WeatherDisplay:10.37,2013-01-09 00:42:00,
2013-01-08 18:47:00,37.3,32.9,30.00,SSE,163,12.3,13.8,84,0.00,,,0.00,WeatherDisplay:10.37,2013-01-09 00:47:00,
2013-01-08 18:52:00,37.4,33.0,30.00,SSE,158,12.9,17.3,84,0.00,,,0.00,WeatherDisplay:10.37,2013-01-09 00:52:00,
2013-01-08 18:57:00,37.5,33.1,30.00,South,170,10.2,12.7,84,0.00,,,0.00,WeatherDisplay:10.37,2013-01-09 00:57:00,
2013-01-08 19:02:00,37.6,32.9,30.01,South,172,11.7,13.8,83,0.00,,,0.00,WeatherDisplay:10.37,2013-01-09 01:02:00,
2013-01-08 19:07:00,37.7,33.0,30.01,South,174,10.1,12.7,83,0.00,,,0.00,WeatherDisplay:10.37,2013-01-09 01:07:00,
2013-01-08 19:12:00,37.7,33.0,30.01,SSE,160,9.5,10.4,83,0.00,,,0.00,WeatherDisplay:10.37,2013-01-09 01:12:00,
2013-01-08 19:17:00,37.8,33.1,30.01,South,174,8.5,11.5,83,0.00,,,0.00,WeatherDisplay:10.37,2013-01-09 01:17:00,
2013-01-08 19:23:00,38.0,33.3,30.02,South,183,7.2,11.5,83,0.00,,,0.00,WeatherDisplay:10.37,2013-01-09 01:23:00,
2013-01-08 19:28:00,38.1,33.4,30.03,SSW,203,8.8,11.5,83,0.00,,,0.00,WeatherDisplay:10.37,2013-01-09 01:28:00,
2013-01-08 19:33:00,38.2,33.5,30.03,South,173,9.8,11.5,83,0.00,,,0.00,WeatherDisplay:10.37,2013-01-09 01:33:00,
2013-01-08 19:38:00,38.2,33.5,30.03,South,184,8.5,11.5,83,0.00,,,0.00,WeatherDisplay:10.37,2013-01-09 01:38:00,
2013-01-08 19:43:00,38.1,33.4,30.03,SSW,194,6.4,9.2,83,0.00,,,0.00,WeatherDisplay:10.37,2013-01-09 01:43:00,
2013-01-08 19:48:00,37.9,33.5,30.03,SSW,205,8.1,11.5,84,0.00,,,0.00,WeatherDisplay:10.37,2013-01-09 01:48:00,
2013-01-08 19:53:00,37.9,33.2,30.03,SSW,200,10.3,11.5,83,0.00,,,0.00,WeatherDisplay:10.37,2013-01-09 01:53:00,
2013-01-08 19:58:00,37.8,33.1,30.03,South,190,11.3,15.0,83,0.00,,,0.00,WeatherDisplay:10.37,2013-01-09 01:58:00,
2013-01-08 20:03:00,37.6,32.9,30.03,SSW,197,10.9,12.7,83,0.00,,,0.00,WeatherDisplay:10.37,2013-01-09 02:03:00,
2013-01-08 20:08:00,37.5,33.1,30.03,South,173,11.8,17.3,84,0.00,,,0.00,WeatherDisplay:10.37,2013-01-09 02:08:00,
2013-01-08 20:13:00,37.4,33.0,30.03,South,191,10.9,12.7,84,0.00,,,0.00,WeatherDisplay:10.37,2013-01-09 02:13:00,
2013-01-08 20:18:00,37.2,32.8,30.03,South,179,9.4,11.5,84,0.00,,,0.00,WeatherDisplay:10.37,2013-01-09 02:18:00,
2013-01-08 20:23:00,37.1,32.7,30.03,SSW,199,10.5,15.0,84,0.00,,,0.00,WeatherDisplay:10.37,2013-01-09 02:23:00,
2013-01-08 20:28:00,37.0,32.6,30.03,SSW,210,9.3,11.5,84,0.00,,,0.00,WeatherDisplay:10.37,2013-01-09 02:28:00,
2013-01-08 20:33:00,36.9,32.8,30.02,South,188,10.3,11.5,85,0.00,,,0.00,WeatherDisplay:10.37,2013-01-09 02:33:00,
2013-01-08 20:38:00,36.9,32.8,30.02,SSE,165,9.7,11.5,85,0.00,,,0.00,WeatherDisplay:10.37,2013-01-09 02:38:00,
2013-01-08 20:43:00,36.9,32.8,30.03,SSW,211,10.5,12.7,85,0.00,,,0.00,WeatherDisplay:10.37,2013-01-09 02:43:00,
2013-01-08 20:48:00,37.0,32.9,30.03,SSW,193,11.2,15.0,85,0.00,,,0.00,WeatherDisplay:10.37,2013-01-09 02:48:00,
2013-01-08 20:53:00,37.1,33.0,30.03,SW,221,11.0,14.0,85,0.00,,,0.00,WeatherDisplay:10.37,2013-01-09 02:53:00,
2013-01-08 20:58:00,37.1,33.0,30.03,SSW,205,10.7,12.7,85,0.00,,,0.00,WeatherDisplay:10.37,2013-01-09 02:58:00,
2013-01-08 21:03:00,37.1,32.7,30.03,SSW,198,10.3,11.5,84,0.00,,,0.00,WeatherDisplay:10.37,2013-01-09 03:03:00,
2013-01-08 21:08:00,37.1,32.7,30.02,South,170,10.8,12.0,84,0.00,,,0.00,WeatherDisplay:10.37,2013-01-09 03:08:00,
2013-01-08 21:13:00,37.2,32.8,30.03,SSW,204,9.7,13.8,84,0.00,,,0.00,WeatherDisplay:10.37,2013-01-09 03:13:00,
2013-01-08 21:18:00,37.2,32.8,30.02,SSW,210,11.5,12.0,84,0.00,,,0.00,WeatherDisplay:10.37,2013-01-09 03:18:00,
2013-01-08 21:24:00,37.2,32.8,30.02,SSW,195,10.2,14.0,84,0.00,,,0.00,WeatherDisplay:10.37,2013-01-09 03:24:00,
2013-01-08 21:29:00,37.2,32.8,30.02,SW,221,11.9,14.0,84,0.00,,,0.00,WeatherDisplay:10.37,2013-01-09 03:29:00,
2013-01-08 21:34:00,37.2,32.8,30.02,South,179,10.5,12.0,84,0.00,,,0.00,WeatherDisplay:10.37,2013-01-09 03:34:00,
2013-01-08 21:39:00,37.1,32.7,30.02,South,184,11.9,12.7,84,0.00,,,0.00,WeatherDisplay:10.37,2013-01-09 03:39:00,
2013-01-08 21:44:00,37.1,33.0,30.02,South,188,10.5,12.7,85,0.00,,,0.00,WeatherDisplay:10.37,2013-01-09 03:44:00,
2013-01-08 21:49:00,36.9,32.8,30.02,SSW,195,10.8,12.7,85,0.00,,,0.00,WeatherDisplay:10.37,2013-01-09 03:49:00,
2013-01-08 21:54:00,36.9,32.8,30.02,SW,218,10.9,15.0,85,0.00,,,0.00,WeatherDisplay:10.37,2013-01-09 03:54:00,
2013-01-08 21:59:00,37.0,32.9,30.02,SW,221,11.6,13.8,85,0.00,,,0.00,WeatherDisplay:10.37,2013-01-09 03:59:00,
2013-01-08 22:04:00,37.0,32.9,30.02,SSW,197,12.6,15.0,85,0.00,,,0.00,WeatherDisplay:10.37,2013-01-09 04:04:00,
2013-01-08 22:09:00,37.1,33.0,30.02,SSW,205,12.4,16.1,85,0.00,,,0.00,WeatherDisplay:10.37,2013-01-09 04:09:00,
2013-01-08 22:15:00,37.1,33.0,30.02,SSW,193,10.6,13.8,85,0.00,,,0.00,WeatherDisplay:10.37,2013-01-09 04:15:00,
2013-01-08 22:20:00,37.1,33.0,30.02,SSW,205,11.4,13.8,85,0.00,,,0.00,WeatherDisplay:10.37,2013-01-09 04:20:00,
2013-01-08 22:25:00,37.2,33.1,30.02,SSW,204,13.2,16.1,85,0.00,,,0.00,WeatherDisplay:10.37,2013-01-09 04:25:00,
2013-01-08 22:30:00,37.1,33.0,30.02,SW,219,13.4,17.3,85,0.00,,,0.00,WeatherDisplay:10.37,2013-01-09 04:30:00,
2013-01-08 22:35:00,37.2,33.1,30.01,SSW,200,11.7,13.8,85,0.00,,,0.00,WeatherDisplay:10.37,2013-01-09 04:35:00,
2013-01-08 22:40:00,37.1,33.0,30.02,SSW,205,12.3,16.1,85,0.00,,,0.00,WeatherDisplay:10.37,2013-01-09 04:40:00,
2013-01-08 22:45:00,37.0,32.9,30.01,SSW,201,11.7,16.1,85,0.00,,,0.00,WeatherDisplay:10.37,2013-01-09 04:45:00,
2013-01-08 22:50:00,36.9,32.8,30.02,SSW,205,10.2,13.0,85,0.00,,,0.00,WeatherDisplay:10.37,2013-01-09 04:50:00,
2013-01-08 22:55:00,36.8,32.7,30.02,SSW,208,11.0,12.7,85,0.00,,,0.00,WeatherDisplay:10.37,2013-01-09 04:55:00,
2013-01-08 23:00:00,36.7,32.9,30.02,SSW,198,10.6,13.8,86,0.00,,,0.00,WeatherDisplay:10.37,2013-01-09 05:00:00,
2013-01-08 23:02:00,36.7,32.6,30.02,SSW,195,11.4,12.7,85,0.00,,,0.00,WeatherDisplay:10.37,2013-01-09 05:02:00,
2013-01-08 23:03:00,36.8,32.7,30.02,SSW,203,12.4,13.8,85,0.00,,,0.00,WeatherDisplay:10.37,2013-01-09 05:03:00,
2013-01-08 23:05:00,36.8,32.7,30.02,SSW,208,12.0,14.0,85,0.00,,,0.00,WeatherDisplay:10.37,2013-01-09 05:05:00,
2013-01-08 23:10:00,36.8,32.7,30.03,SW,217,10.0,14.0,85,0.00,,,0.00,WeatherDisplay:10.37,2013-01-09 05:10:00,
2013-01-08 23:15:00,37.2,32.8,30.03,SW,214,9.7,13.0,84,0.00,,,0.00,WeatherDisplay:10.37,2013-01-09 05:15:00,
2013-01-08 23:20:00,37.7,33.0,30.03,SW,218,10.6,15.0,83,0.00,,,0.00,WeatherDisplay:10.37,2013-01-09 05:20:00,
2013-01-08 23:25:00,38.1,32.8,30.03,SSW,208,14.4,18.4,81,0.00,,,0.00,WeatherDisplay:10.37,2013-01-09 05:25:00,
2013-01-08 23:30:00,38.5,32.9,30.03,SW,224,13.0,18.4,80,0.00,,,0.00,WeatherDisplay:10.37,2013-01-09 05:30:00,
2013-01-08 23:35:00,38.5,32.9,30.03,SW,218,11.6,13.8,80,0.00,,,0.00,WeatherDisplay:10.37,2013-01-09 05:35:00,
2013-01-08 23:40:00,38.7,32.7,30.03,SSW,207,14.1,19.6,79,0.00,,,0.00,WeatherDisplay:10.37,2013-01-09 05:40:00,
2013-01-08 23:45:00,38.5,32.9,30.03,SW,214,13.1,18.4,80,0.00,,,0.00,WeatherDisplay:10.37,2013-01-09 05:45:00,
2013-01-08 23:50:00,38.7,32.7,30.03,SW,216,13.5,17.3,79,0.00,,,0.00,WeatherDisplay:10.37,2013-01-09 05:50:00,
2013-01-08 23:55:00,38.5,32.6,30.03,SW,235,14.1,17.3,79,0.00,,,0.00,WeatherDisplay:10.37,2013-01-09 05:55:00,